[[{"header":{"parameterUnit":"m.s-1","parameterCategory":1,"la1":30.2991,"la2":30.254,"lo1":-89.0895,"lo2":-89.0444,"dy":0.0017,"dx":0.0017,"nx":28,"ny":28,"refTime":"2026-02-16T03:00:00:Z","depth":0,"parameterNumber":2,"parameterNumberName":"U-component_of_WINDS"},"data":[0,0,0,0,0,0,0,0,0,0,0,0,0,0,0,0,0,0,0,0,0,0,0,0,0,0,0,0,0,0,0,0,0,0,0,0,0,0,0,0,0,0,0,0,0,0,0,0,0,0,0,0,0,0,0,0,0,0,-1.7548,-1.7548,0,-1.7517,-1.7517,-1.7517,-1.7493,-1.7492,-1.7492,-1.7492,-1.746,-1.7459,-1.7459,0,0,0,0,0,0,0,0,0,0,0,0,0,-1.7587,-1.7587,-1.7548,-1.7548,-1.7547,-1.7517,-1.7517,-1.7516,-1.7493,-1.7492,-1.7492,-1.7492,-1.746,-1.7459,-1.7459,0,0,0,0,0,0,0,0,0,0,0,0,0,-1.7565,-1.7586,-1.7548,-1.7532,-1.753,-1.7517,-1.7517,-1.7516,-1.7493,-1.7492,-1.7492,-1.7492,-1.7461,-1.746,-1.7459,-1.7459,0,0,-1.7456,-1.7455,0,0,0,0,0,0,0,0,-1.7566,-1.7563,-1.7535,-1.7533,-1.7531,-1.7508,-1.7519,-1.7497,-1.7493,-1.7507,-1.7492,-1.7492,-1.7476,-1.7474,-1.7469,-1.7458,-1.7457,-1.7456,-1.7455,-1.7455,-1.7454,0,0,0,0,0,0,0,-1.7568,-1.7564,-1.7536,-1.7534,-1.7532,-1.7526,-1.7523,-1.7515,-1.7494,-1.7506,-1.7504,-1.7501,-1.7475,-1.747,-1.7468,-1.7456,-1.7456,-1.7455,-1.7454,-1.7454,-1.7445,-1.7445,0,0,0,0,0,0,-1.7572,-1.7566,-1.7537,-1.7535,-1.7548,-1.7526,-1.7522,-1.7516,-1.7494,-1.749,-1.7501,-1.75,-1.7472,-1.7469,-1.7467,-1.7466,-1.7455,-1.7454,-1.7453,-1.7444,-1.7445,-1.7445,0,0,0,0,0,0,-1.7573,-1.7569,-1.7538,-1.755,-1.7546,-1.7526,-1.7519,-1.7516,-1.751,-1.749,-1.7487,-1.7499,-1.7471,-1.7468,-1.7462,-1.7465,-1.7453,-1.7452,-1.7444,-1.7444,-1.7445,-1.7465,0,0,0,0,0,0,-1.7574,-1.757,-1.757,-1.755,-1.7545,-1.7533,-1.7519,-1.7515,-1.7509,-1.7507,-1.7488,-1.7484,-1.7471,-1.7463,-1.7461,-1.7463,-1.7452,-1.7444,-1.7444,-1.7445,-1.7464,-1.7466,-1.7468,0,0,0,0,0,-1.7575,-1.7576,-1.757,-1.7566,-1.7545,-1.7533,-1.753,-1.7515,-1.7509,-1.7509,-1.7496,-1.7485,-1.7465,-1.7463,-1.746,-1.7462,-1.7443,-1.7444,-1.7445,-1.7463,-1.7466,-1.7468,0,0,0,0,0,0,-1.7596,-1.7573,-1.7566,-1.7561,-1.7549,-1.7529,-1.7528,-1.7518,-1.7508,-1.7507,-1.7488,-1.7484,-1.748,-1.747,-1.7468,-1.7462,-1.7453,-1.7453,-1.7468,-1.747,-1.7472,-1.7474,-1.7451,0,0,0,0,0,-1.7601,-1.7593,-1.7574,-1.7571,-1.7566,-1.7549,-1.7543,-1.7532,-1.752,-1.7515,-1.7501,-1.749,-1.7481,-1.7475,-1.7466,-1.7463,-1.7459,-1.7463,-1.7465,-1.7467,-1.7467,-1.7465,-1.7467,-1.7448,-1.7448,-1.7448,0,0,-1.7609,-1.7595,-1.7592,-1.7575,-1.7565,-1.7558,-1.7544,-1.7538,-1.7532,-1.7514,-1.7506,-1.7497,-1.7482,-1.7477,-1.7475,-1.7469,-1.7472,-1.7468,-1.747,-1.7469,-1.7466,-1.7468,-1.7469,-1.7448,-1.7448,-1.7448,0,0,-1.762,-1.761,-1.7606,-1.7596,-1.7581,-1.757,-1.7569,-1.7551,-1.7544,-1.7537,-1.7523,-1.7516,-1.7501,-1.7492,-1.7485,-1.7494,-1.7483,-1.7492,-1.7502,-1.75,-1.7502,-1.7503,-1.7505,-1.7507,-1.7492,-1.7492,-1.7492,0,-1.7632,-1.7621,-1.7606,-1.76,-1.7593,-1.7576,-1.7573,-1.7564,-1.7547,-1.7543,-1.7537,-1.7519,-1.7508,-1.7501,-1.7503,-1.7498,-1.7497,-1.7493,-1.7503,-1.7504,-1.7505,-1.7507,-1.7508,-1.7493,-1.7493,-1.7493,-1.7493,0,-1.7636,-1.7629,-1.7628,-1.7612,-1.7605,-1.76,-1.7585,-1.758,-1.757,-1.756,-1.7552,-1.7539,-1.7527,-1.7525,-1.7516,-1.7517,-1.7514,-1.7506,-1.7496,-1.7508,-1.751,-1.751,-1.7495,-1.7494,-1.7494,-1.7494,0,0,-1.7658,-1.7635,-1.7634,-1.7627,-1.761,-1.7604,-1.7599,-1.7587,-1.7583,-1.7573,-1.7568,-1.7556,-1.7549,-1.7542,-1.7531,-1.753,-1.7538,-1.7522,-1.7521,-1.7525,-1.7538,-1.7543,-1.7544,-1.7531,-1.7531,-1.7531,-1.7539,0,-1.7666,-1.7655,-1.7642,-1.7636,-1.7629,-1.7614,-1.761,-1.7599,-1.759,-1.7583,-1.7572,-1.7564,-1.7555,-1.7551,-1.7549,-1.7537,-1.754,-1.7536,-1.7526,-1.7526,-1.7528,-1.7545,-1.755,-1.7558,-1.7539,-1.7539,-1.7539,0,-1.7673,-1.7663,-1.7657,-1.764,-1.7637,-1.7633,-1.7622,-1.7615,-1.7603,-1.7596,-1.7589,-1.7578,-1.7572,-1.7565,-1.7556,-1.7554,-1.755,-1.7544,-1.7544,-1.7541,-1.7532,-1.7542,-1.756,-1.756,-1.7541,-1.7541,-1.754,0,-1.7688,-1.7674,-1.7668,-1.7662,-1.7644,-1.7641,-1.7634,-1.7621,-1.7615,-1.7606,-1.7602,-1.7592,-1.7586,-1.7579,-1.7565,-1.7561,-1.7559,-1.755,-1.7552,-1.7553,-1.7551,-1.7551,-1.7567,-1.755,-1.755,-1.755,-1.755,0,-1.7698,-1.7694,-1.7675,-1.7671,-1.7667,-1.7652,-1.7649,-1.7639,-1.7629,-1.7623,-1.761,-1.7605,-1.7589,-1.7582,-1.7572,-1.7567,-1.7565,-1.7559,-1.7556,-1.7559,-1.756,-1.7555,-1.7553,-1.7551,-1.755,-1.755,-1.755,0,-1.7714,-1.7701,-1.7693,-1.7677,-1.7672,-1.767,-1.7656,-1.7652,-1.7642,-1.7635,-1.7633,-1.7618,-1.7609,-1.7596,-1.7583,-1.7577,-1.7573,-1.7569,-1.7577,-1.7575,-1.7578,-1.7577,-1.759,-1.7591,-1.7575,-1.7575,-1.7575,0,-1.772,-1.7717,-1.77,-1.7695,-1.7688,-1.7681,-1.7675,-1.7661,-1.7655,-1.7642,-1.764,-1.763,-1.7622,-1.7609,-1.7597,-1.7588,-1.7583,-1.7588,-1.7581,-1.7585,-1.7582,-1.7582,-1.7581,-1.7589,-1.7589,-1.7589,-1.759,0,-1.7732,-1.7726,-1.7717,-1.7707,-1.7701,-1.7692,-1.7683,-1.768,-1.7664,-1.7658,-1.765,-1.7643,-1.7631,-1.7622,-1.7611,-1.7603,-1.7594,-1.7592,-1.7592,-1.7595,-1.7599,-1.7596,-1.758,-1.7592,-1.7591,-1.7591,-1.7591,-1.7591,-1.7742,-1.7739,-1.7726,-1.7718,-1.771,-1.7702,-1.7697,-1.7687,-1.768,-1.7668,-1.7661,-1.7653,-1.7642,-1.7626,-1.7619,-1.7613,-1.7608,-1.7608,-1.7608,-1.7608,-1.7609,-1.7601,-1.7611,-1.7611,-1.7611,-1.7611,-1.7611,0,-1.7753,-1.7744,-1.7737,-1.7724,-1.7718,-1.771,-1.77,-1.7695,-1.7688,-1.7678,-1.767,-1.7661,-1.7652,-1.764,-1.763,-1.7628,-1.7623,-1.7626,-1.7625,-1.7623,-1.7614,-1.7614,-1.7629,-1.7629,-1.7629,-1.7629,-1.7629,-1.7629,-1.7757,-1.7751,-1.7744,-1.7734,-1.7725,-1.7717,-1.7712,-1.7704,-1.7697,-1.7686,-1.7679,-1.7671,-1.7661,-1.7651,-1.7643,-1.7639,-1.7636,-1.764,-1.7635,-1.7626,-1.7624,-1.7622,-1.7623,-1.7639,-1.7639,-1.7645,-1.7645,-1.7645]},{"header":{"parameterUnit":"m.s-1","parameterCategory":1,"la1":30.2991,"la2":30.254,"lo1":-89.0895,"lo2":-89.0444,"dy":0.0017,"dx":0.0017,"nx":28,"ny":28,"refTime":"2026-02-16T03:00:00:Z","depth":0,"parameterNumber":3,"parameterNumberName":"V-component_of_WINDS"},"data":[0,0,0,0,0,0,0,0,0,0,0,0,0,0,0,0,0,0,0,0,0,0,0,0,0,0,0,0,0,0,0,0,0,0,0,0,0,0,0,0,0,0,0,0,0,0,0,0,0,0,0,0,0,0,0,0,0,0,1.4094,1.4093,0,1.4008,1.4008,1.4007,1.406,1.4062,1.4065,1.4067,1.3979,1.3974,1.397,0,0,0,0,0,0,0,0,0,0,0,0,0,1.4304,1.43,1.4094,1.4093,1.4092,1.4009,1.4007,1.4006,1.4059,1.4062,1.4066,1.4068,1.398,1.3975,1.3969,0,0,0,0,0,0,0,0,0,0,0,0,0,1.4215,1.4298,1.4094,1.4109,1.4109,1.4009,1.4007,1.4006,1.4059,1.4063,1.4066,1.407,1.3982,1.3975,1.3968,1.3849,0,0,1.3947,1.3944,0,0,0,0,0,0,0,0,1.422,1.4207,1.4108,1.4107,1.4108,1.4049,1.4049,1.3953,1.4058,1.4078,1.4067,1.4072,1.3999,1.3991,1.3966,1.3845,1.3842,1.3946,1.3942,1.3939,1.3937,0,0,0,0,0,0,0,1.4226,1.4211,1.406,1.4106,1.4106,1.4119,1.4111,1.4031,1.4018,1.4076,1.408,1.4069,1.4,1.3973,1.3965,1.384,1.3946,1.394,1.3936,1.3933,1.3618,1.3614,0,0,0,0,0,0,1.4231,1.4216,1.4063,1.4058,1.4174,1.4112,1.4103,1.4064,1.4019,1.4016,1.4066,1.4072,1.3983,1.3973,1.3962,1.382,1.3939,1.3932,1.3928,1.3622,1.3617,1.3613,0,0,0,0,0,0,1.4235,1.4217,1.4067,1.4138,1.412,1.4105,1.406,1.406,1.4034,1.4012,1.4009,1.4041,1.3986,1.3972,1.3877,1.3818,1.3929,1.3923,1.3627,1.3621,1.3615,1.3535,0,0,0,0,0,0,1.4241,1.4218,1.4173,1.4136,1.4116,1.3983,1.4057,1.4056,1.4021,1.4028,1.3988,1.3984,1.3988,1.3887,1.387,1.381,1.3917,1.3632,1.3624,1.3617,1.3543,1.3527,1.3513,0,0,0,0,0,1.4248,1.4153,1.417,1.4151,1.4058,1.3979,1.3968,1.3973,1.4016,1.397,1.3957,1.3986,1.3827,1.3877,1.3858,1.3795,1.3636,1.3627,1.3618,1.355,1.353,1.3513,0,0,0,0,0,0,1.4182,1.4149,1.4167,1.4057,1.4021,1.3989,1.3931,1.3952,1.3903,1.3911,1.3921,1.3911,1.3812,1.3794,1.3851,1.3678,1.3738,1.3725,1.3693,1.3674,1.366,1.3666,1.3911,0,0,0,0,0,1.4155,1.4094,1.4068,1.3973,1.3954,1.3945,1.3911,1.3919,1.3882,1.3866,1.3846,1.3808,1.375,1.3711,1.3657,1.3541,1.3533,1.3488,1.3473,1.3461,1.3449,1.3387,1.3367,1.3582,1.3582,1.3582,0,0,1.4098,1.4072,1.4032,1.3959,1.3932,1.3868,1.3932,1.3862,1.3815,1.3856,1.3765,1.3749,1.3708,1.3602,1.3555,1.3584,1.3388,1.3449,1.344,1.3434,1.3376,1.3355,1.3337,1.3576,1.3577,1.3578,0,0,1.3961,1.3935,1.3854,1.3826,1.3784,1.3779,1.3759,1.3724,1.3714,1.3624,1.3654,1.3598,1.3497,1.3467,1.3438,1.3291,1.3317,1.3273,1.3195,1.3135,1.3118,1.3103,1.3051,1.3032,1.3262,1.3261,1.3261,0,1.3895,1.38,1.3809,1.3737,1.3704,1.3739,1.3657,1.3629,1.3571,1.3548,1.3582,1.3457,1.3432,1.332,1.3284,1.326,1.3238,1.3278,1.312,1.3105,1.3091,1.3041,1.3021,1.3256,1.3257,1.3258,1.3258,0,1.3721,1.3655,1.3595,1.3539,1.3499,1.3422,1.342,1.3379,1.339,1.3382,1.329,1.3261,1.3201,1.3175,1.3185,1.3065,1.3085,1.3119,1.318,1.3065,1.3019,1.3,1.3249,1.3251,1.3253,1.3254,0,0,1.3539,1.349,1.3468,1.3443,1.34,1.3349,1.3274,1.3216,1.3181,1.314,1.3077,1.2992,1.3024,1.2992,1.2999,1.2946,1.2832,1.2987,1.2986,1.2959,1.2698,1.2672,1.265,1.2849,1.2845,1.2842,1.2701,0,1.34,1.3269,1.3276,1.3153,1.3093,1.3125,1.306,1.3027,1.3017,1.2964,1.2954,1.2893,1.294,1.2921,1.287,1.2856,1.2779,1.2867,1.2791,1.2788,1.2799,1.2625,1.2597,1.2466,1.2683,1.268,1.2678,0,1.3219,1.3173,1.3045,1.3012,1.2987,1.2928,1.2876,1.2825,1.2788,1.2785,1.2749,1.2765,1.269,1.2753,1.2649,1.2709,1.2678,1.2667,1.2662,1.2655,1.2725,1.2613,1.2424,1.2404,1.2649,1.2651,1.2653,0,1.31,1.3005,1.2916,1.2894,1.2853,1.2811,1.2792,1.2759,1.2724,1.2679,1.2656,1.2602,1.2573,1.2531,1.2533,1.2578,1.2428,1.2491,1.2423,1.2423,1.2389,1.2391,1.2192,1.237,1.237,1.237,1.2371,0,1.2943,1.2863,1.2862,1.2807,1.2719,1.2728,1.264,1.2626,1.2596,1.2539,1.2564,1.2511,1.2516,1.2462,1.2463,1.2377,1.2364,1.2359,1.236,1.2357,1.2357,1.2336,1.2345,1.2365,1.2366,1.2367,1.2368,0,1.2794,1.279,1.2695,1.2665,1.2655,1.2591,1.2565,1.2514,1.2507,1.2435,1.2418,1.2407,1.2345,1.2343,1.2271,1.2272,1.2167,1.2179,1.2179,1.2181,1.2114,1.212,1.1894,1.1865,1.2062,1.206,1.2058,0,1.2694,1.2633,1.2597,1.2561,1.2539,1.2481,1.2445,1.2452,1.2414,1.2368,1.2322,1.2262,1.2214,1.2113,1.2099,1.2045,1.2055,1.198,1.2047,1.2045,1.2054,1.2057,1.2051,1.1966,1.1964,1.1962,1.1961,0,1.2517,1.2519,1.2467,1.2414,1.2371,1.233,1.2292,1.2261,1.2263,1.222,1.2156,1.212,1.2047,1.1987,1.1935,1.1915,1.1938,1.194,1.1921,1.1917,1.192,1.1917,1.2143,1.1945,1.1946,1.1947,1.1948,1.1949,1.2389,1.2337,1.2304,1.2245,1.2218,1.2182,1.2132,1.2119,1.2066,1.2008,1.2015,1.1945,1.191,1.1842,1.1818,1.1764,1.179,1.1763,1.1756,1.1749,1.1742,1.1929,1.1754,1.1755,1.1755,1.1756,1.1756,0,1.2214,1.2194,1.2141,1.2087,1.2041,1.2067,1.2027,1.1986,1.1924,1.189,1.1843,1.1771,1.1714,1.1695,1.164,1.16,1.1609,1.1585,1.1588,1.1583,1.1722,1.1743,1.1579,1.1579,1.1579,1.1579,1.1579,1.1579,1.2117,1.2031,1.2028,1.1928,1.1909,1.1841,1.1815,1.1783,1.1756,1.1674,1.1626,1.1615,1.1588,1.1531,1.1479,1.1476,1.1454,1.1425,1.1426,1.1556,1.1573,1.159,1.1611,1.1421,1.1421,1.1292,1.1291,1.129]}]]